Погода в Подах

Россия / Курская область     51°49′47″N   34°43′21″E
темп.,
°C
ветер,
м/с
пор.,
м/с
влажн.,
%
обл.,
%
осадки,
мм/ч
давл.,
гПа
погр.,
м
19 мая, ср
ср1900:00+13ююв369591 0.9 1002114
03:00+12юв36967 0.9 1003130
06:00+12юв389859 0.4 1003320
09:00+14ююв6987100 0.4 1004659
12:00+18ююв5766100 0.1 10051523
15:00+18ююв6666100 0.3 10051234
18:00+13юв4695100 1.0 1005260
21:00+12ююв1196100 2.8 100539
20 мая, чт
чт2000:00+11ююз2498100 2.6 1003242
03:00+11ю3699100 8.4 1003331
06:00+11юз4898100 1.2 1003399
09:00+11юз3797100 2.6 1004334
12:00+13ю5794100 1.7 1005596
15:00+12зюз689197 2.5 1006706
18:00+11зюз5891100 0.1 1008827
21:00+10з51090100 0.1 1009577
21 мая, пт
пт2100:00+9зюз4109372 0.0 1011348
03:00+8з41095100 0.0 1012238
06:00+9з499296 0.0 1014251
09:00+13сз4674100 0.0 1015570
12:00+16ссз3463100 0.0 10161193
15:00+18с235795 0.0 10161621
18:00+17св3467100 0.0 1016491
21:00+13св227458 0.0 101715
22 мая, сб
сб2200:00+10св338345 0.0 101741
03:00+9ссв4689100 0.0 1017105
06:00+11ссв4884100 0.0 1017221
09:00+14всв5980100 0.0 1017556
12:00+16всв6774100 0.0 1016873
15:00+14всв4990100 0.0 1016427
18:00+15всв5987100 0.0 1015497
21:00+12всв41096100 0.0 1014263
23 мая, вс
вс2300:00+11св4997100 0.0 1013229
03:00+10св3798100 0.0 1013181
06:00+12в3697100 0.0 1010225
09:00+15ююв2291100 0.0 1009361
12:00+17ююз2384100 0.0 1008597
15:00+20юз467678 0.1 10061102
18:00+17з71085100 0.5 1007665
21:00+13з71386100 0.6 1008713